Location: Newark
(48.4472°N, 1.4892°E)
Time: 16:00:55
(UTC+00:00)

S-56A Canister/Altair - All Passes

Search period start: 14 November 2019 00:00
Search period end: 24 November 2019 00:00
Orbit: 634 x 2498 km, 38.9° (Epoch: 13 November)

Date Brightness Start Highest point End Pass type
(mag) Time Alt. Az. Time Alt. Az. Time Alt. Az.
14 Nov - 18:10:31 10° SSW 18:16:12 22° SSE 18:20:35 10° ESE visible
14 Nov - 20:14:02 10° WSW 20:19:24 30° S 20:23:37 10° ESE visible
14 Nov - 22:18:31 10° WSW 22:22:12 20° SSW 22:25:32 10° SSE night (unlit)
15 Nov - 17:37:29 10° SSW 17:43:32 22° SSE 17:48:10 10° ESE visible
15 Nov - 19:40:59 10° WSW 19:46:52 31° S 19:51:19 10° ESE visible
15 Nov - 21:45:34 10° WSW 21:49:45 23° SSW 21:53:21 10° SE night (unlit)
16 Nov - 17:04:26 10° SSW 17:10:50 22° SSE 17:15:44 10° ESE visible
16 Nov - 19:07:50 10° WSW 19:14:17 32° S 19:19:01 10° ESE visible
16 Nov - 21:12:33 10° WSW 21:17:16 26° SSW 21:21:09 10° SE visible
17 Nov - 16:31:22 10° SSW 16:38:05 22° SSE 16:43:15 10° ESE daylight
17 Nov - 18:34:39 10° SW 18:41:39 33° S 18:46:43 10° ESE visible
17 Nov - 20:39:27 10° WSW 20:44:46 29° SSW 20:48:57 10° SE visible
17 Nov - 22:46:00 10° SW 22:47:13 11° SSW 22:48:23 10° SSW night (unlit)
18 Nov - 15:58:18 10° SSW 16:05:18 21° SSE 16:10:43 10° ESE daylight
18 Nov - 18:01:23 10° SW 18:08:59 34° S 18:14:24 10° ESE visible
18 Nov - 20:06:17 10° WSW 20:12:15 32° SSW 20:16:45 10° SE visible
18 Nov - 22:12:14 10° WSW 22:14:46 13° SSW 22:17:05 10° S night (unlit)
19 Nov - 15:25:15 10° SSW 15:32:28 20° SSE 15:38:07 10° ESE daylight
19 Nov - 17:28:05 10° SW 17:36:17 34° S 17:42:03 10° ESE visible
19 Nov - 19:33:03 10° WSW 19:39:42 35° S 19:44:32 10° SE visible
19 Nov - 21:38:50 10° WSW 21:42:19 16° SSW 21:45:21 10° S visible
20 Nov - 14:52:15 10° S 14:59:35 20° SSE 15:05:26 10° ESE daylight
20 Nov - 16:54:43 10° SW 17:03:30 35° SSE 17:09:40 10° ESE visible
20 Nov - 18:59:44 10° WSW 19:07:05 37° S 19:12:17 10° ESE visible
20 Nov - 21:05:28 10° WSW 21:09:52 20° SSW 21:13:29 10° SSE visible
21 Nov - 14:19:18 10° S 14:26:40 19° SSE 14:32:39 10° ESE daylight
21 Nov - 16:21:20 10° SW 16:30:40 35° SSE 16:37:15 10° ESE daylight
21 Nov - 18:26:22 10° WSW 18:34:26 40° S 18:40:01 10° ESE visible
21 Nov - 20:32:07 10° WSW 20:37:23 23° SSW 20:41:30 10° SSE visible
22 Nov - 13:46:27 10° S 13:53:43 18° SE 13:59:45 10° ESE daylight
22 Nov - 15:47:57 10° SW 15:57:48 34° SSE 16:04:48 10° ESE daylight
22 Nov - 17:52:55 10° WSW 18:01:43 42° S 18:07:44 10° ESE visible
22 Nov - 19:58:45 10° W 20:04:52 27° SSW 20:09:28 10° SSE visible
23 Nov - 13:13:44 10° S 13:20:44 17° SE 13:26:42 10° ESE daylight
23 Nov - 15:14:33 10° SW 15:24:52 34° SSE 15:32:17 10° E daylight
23 Nov - 17:19:24 10° WSW 17:28:57 43° S 17:35:25 10° ESE visible
23 Nov - 19:25:19 10° W 19:32:18 31° SSW 19:37:22 10° SE visible
